Location: Gad�tanya
(48.0500°N, 20.8500°E)
Time: 11:13:04
(UTC+00:00)

Cosmos 1825 Rocket - Pass Details

Date: 05 July 2020
Orbit: 603 x 631 km, 82.5° (Epoch: 15 August)

Event Time Altitude Azimuth Distance (km) Brightness Sun altitude
Exits shadow 20:10:14 - 199° (SSW) 2,802 6.6 -11.6°
Reaches altitude 10° 20:12:15 10° 204° (SSW) 1,997 5.9 -11.8°
Maximum altitude 20:16:36 56° 282° (WNW) 753 4.2 -12.2°
Drops below altitude 10° 20:21:02 10° 2° (N) 2,024 7.1 -12.6°
Sets 20:23:20 0° 7° (N) 2,938 7.9 -12.8°
